Time,TemperatureF,DewpointF,PressureIn,WindDirection,WindDirectionDegrees,WindSpeedMPH,WindSpeedGustMPH,Humidity,HourlyPrecipIn,Conditions,Clouds,dailyrainin,SolarRadiationWatts/m^2,SoftwareType,DateUTC
2013-02-26 00:01:00,33.0,21.0,-100.00,SE,135,2.0,7.0,61,0.00,,,0.00,0.000000,,2013-02-26 05:01:00,
2013-02-26 00:12:00,33.0,21.0,-100.00,SE,135,2.0,7.0,61,0.00,,,0.00,0.000000,,2013-02-26 05:12:00,
2013-02-26 00:32:00,33.0,23.0,-100.00,SE,137,3.0,5.0,67,0.00,,,0.00,0.000000,,2013-02-26 05:32:00,
2013-02-26 00:43:00,33.0,23.0,-100.00,SE,137,3.0,5.0,67,0.00,,,0.00,0.000000,,2013-02-26 05:43:00,
2013-02-26 00:52:00,33.0,23.0,-100.00,SE,137,3.0,5.0,67,0.00,,,0.00,0.000000,,2013-02-26 05:52:00,
2013-02-26 01:02:00,33.0,23.0,-100.00,SE,137,3.0,5.0,67,0.00,,,0.00,0.000000,,2013-02-26 06:02:00,
2013-02-26 01:11:00,33.0,23.0,-100.00,SE,137,3.0,5.0,67,0.00,,,0.00,0.000000,,2013-02-26 06:11:00,
2013-02-26 01:32:00,30.0,20.0,-100.00,SE,130,1.0,6.0,67,0.00,,,0.00,0.000000,,2013-02-26 06:32:00,
2013-02-26 01:42:00,30.0,20.0,-100.00,SE,130,1.0,6.0,67,0.00,,,0.00,0.000000,,2013-02-26 06:42:00,
2013-02-26 01:52:00,30.0,20.0,-100.00,SE,130,1.0,6.0,67,0.00,,,0.00,0.000000,,2013-02-26 06:52:00,
2013-02-26 02:01:00,30.0,20.0,-100.00,SE,130,1.0,6.0,67,0.00,,,0.00,0.000000,,2013-02-26 07:01:00,
2013-02-26 02:11:00,30.0,20.0,-100.00,SE,130,1.0,6.0,67,0.00,,,0.00,0.000000,,2013-02-26 07:11:00,
2013-02-26 02:32:00,28.0,20.0,-100.00,ESE,121,1.0,3.0,73,0.00,,,0.00,0.000000,,2013-02-26 07:32:00,
2013-02-26 02:42:00,28.0,20.0,-100.00,ESE,121,1.0,3.0,73,0.00,,,0.00,0.000000,,2013-02-26 07:42:00,
2013-02-26 02:52:00,28.0,20.0,-100.00,ESE,121,1.0,3.0,73,0.00,,,0.00,0.000000,,2013-02-26 07:52:00,
2013-02-26 03:02:00,28.0,20.0,-100.00,ESE,121,1.0,3.0,73,0.00,,,0.00,0.000000,,2013-02-26 08:02:00,
2013-02-26 03:11:00,28.0,20.0,-100.00,ESE,121,1.0,3.0,73,0.00,,,0.00,0.000000,,2013-02-26 08:11:00,
2013-02-26 03:32:00,27.0,22.0,-100.00,NE,38,0.0,1.0,80,0.00,,,0.00,0.000000,,2013-02-26 08:32:00,
2013-02-26 03:42:00,27.0,22.0,-100.00,NE,38,0.0,1.0,80,0.00,,,0.00,0.000000,,2013-02-26 08:42:00,
2013-02-26 03:52:00,27.0,22.0,-100.00,NE,38,0.0,1.0,80,0.00,,,0.00,0.000000,,2013-02-26 08:52:00,
2013-02-26 04:02:00,27.0,22.0,-100.00,NE,38,0.0,1.0,80,0.00,,,0.00,0.000000,,2013-02-26 09:02:00,
2013-02-26 04:11:00,27.0,22.0,-100.00,NE,38,0.0,1.0,80,0.00,,,0.00,0.000000,,2013-02-26 09:11:00,
2013-02-26 04:43:00,28.0,22.0,-100.00,ESE,118,1.0,3.0,79,0.00,,,0.00,0.000000,,2013-02-26 09:43:00,
2013-02-26 04:52:00,28.0,22.0,-100.00,ESE,118,1.0,3.0,79,0.00,,,0.00,0.000000,,2013-02-26 09:52:00,
2013-02-26 05:01:00,28.0,22.0,-100.00,ESE,118,1.0,3.0,79,0.00,,,0.00,0.000000,,2013-02-26 10:01:00,
2013-02-26 05:11:00,28.0,22.0,-100.00,ESE,118,1.0,3.0,79,0.00,,,0.00,0.000000,,2013-02-26 10:11:00,
2013-02-26 05:32:00,30.0,22.0,-100.00,SSE,162,2.0,5.0,73,0.00,,,0.00,0.000000,,2013-02-26 10:32:00,
2013-02-26 05:42:00,30.0,22.0,-100.00,SSE,162,2.0,5.0,73,0.00,,,0.00,0.000000,,2013-02-26 10:42:00,
2013-02-26 05:52:00,30.0,22.0,-100.00,SSE,162,2.0,5.0,73,0.00,,,0.00,0.000000,,2013-02-26 10:52:00,
2013-02-26 06:01:00,30.0,22.0,-100.00,SSE,162,2.0,5.0,73,0.00,,,0.00,0.000000,,2013-02-26 11:01:00,
2013-02-26 06:12:00,30.0,22.0,-100.00,SSE,162,2.0,5.0,73,0.00,,,0.00,0.000000,,2013-02-26 11:12:00,
2013-02-26 06:32:00,31.0,24.0,-100.00,SE,136,2.0,4.0,75,0.00,,,0.00,0.000000,,2013-02-26 11:32:00,
2013-02-26 06:42:00,31.0,24.0,-100.00,SE,136,2.0,4.0,75,0.00,,,0.00,0.000000,,2013-02-26 11:42:00,
2013-02-26 06:53:00,31.0,24.0,-100.00,SE,136,2.0,4.0,75,0.00,,,0.00,0.000000,,2013-02-26 11:53:00,
2013-02-26 07:02:00,31.0,24.0,-100.00,SE,136,2.0,4.0,75,0.00,,,0.00,0.000000,,2013-02-26 12:02:00,
2013-02-26 07:11:00,31.0,24.0,-100.00,SE,136,2.0,4.0,75,0.00,,,0.00,0.000000,,2013-02-26 12:11:00,
2013-02-26 07:32:00,31.0,22.0,-100.00,SE,128,1.0,4.0,70,0.00,,,0.00,2.000000,,2013-02-26 12:32:00,
2013-02-26 07:42:00,31.0,22.0,-100.00,SE,128,1.0,4.0,70,0.00,,,0.00,2.000000,,2013-02-26 12:42:00,
2013-02-26 07:53:00,31.0,22.0,-100.00,SE,128,1.0,4.0,70,0.00,,,0.00,2.000000,,2013-02-26 12:53:00,
2013-02-26 08:02:00,31.0,22.0,-100.00,SE,128,1.0,4.0,70,0.00,,,0.00,2.000000,,2013-02-26 13:02:00,
2013-02-26 08:11:00,31.0,22.0,-100.00,SE,128,1.0,4.0,70,0.00,,,0.00,2.000000,,2013-02-26 13:11:00,
2013-02-26 08:42:00,32.0,25.0,-100.00,East,83,1.0,3.0,74,0.00,,,0.00,45.000000,,2013-02-26 13:42:00,
2013-02-26 08:52:00,32.0,25.0,-100.00,East,83,1.0,3.0,74,0.00,,,0.00,45.000000,,2013-02-26 13:52:00,
2013-02-26 09:02:00,32.0,25.0,-100.00,East,83,1.0,3.0,74,0.00,,,0.00,45.000000,,2013-02-26 14:02:00,
2013-02-26 09:11:00,32.0,25.0,-100.00,East,83,1.0,3.0,74,0.00,,,0.00,45.000000,,2013-02-26 14:11:00,
2013-02-26 09:32:00,37.0,29.0,-100.00,SE,134,3.0,6.0,74,0.00,,,0.00,120.000000,,2013-02-26 14:32:00,
2013-02-26 09:42:00,37.0,29.0,-100.00,SE,134,3.0,6.0,74,0.00,,,0.00,120.000000,,2013-02-26 14:42:00,
2013-02-26 09:52:00,37.0,29.0,-100.00,SE,134,3.0,6.0,74,0.00,,,0.00,120.000000,,2013-02-26 14:52:00,
2013-02-26 10:02:00,37.0,29.0,-100.00,SE,134,3.0,6.0,74,0.00,,,0.00,120.000000,,2013-02-26 15:02:00,
2013-02-26 10:11:00,37.0,29.0,-100.00,SE,134,3.0,6.0,74,0.00,,,0.00,120.000000,,2013-02-26 15:11:00,
2013-02-26 10:32:00,39.0,26.0,-100.00,SSE,148,4.0,10.0,60,0.00,,,0.00,142.000000,,2013-02-26 15:32:00,
2013-02-26 10:42:00,39.0,26.0,-100.00,SSE,148,4.0,10.0,60,0.00,,,0.00,142.000000,,2013-02-26 15:42:00,
2013-02-26 10:52:00,39.0,26.0,-100.00,SSE,148,4.0,10.0,60,0.00,,,0.00,142.000000,,2013-02-26 15:52:00,
2013-02-26 11:02:00,39.0,26.0,-100.00,SSE,148,4.0,10.0,60,0.00,,,0.00,142.000000,,2013-02-26 16:02:00,
2013-02-26 11:11:00,39.0,26.0,-100.00,SSE,148,4.0,10.0,60,0.00,,,0.00,142.000000,,2013-02-26 16:11:00,
2013-02-26 11:32:00,38.0,28.0,-100.00,ESE,123,4.0,12.0,67,0.00,,,0.00,68.000000,,2013-02-26 16:32:00,
2013-02-26 11:42:00,38.0,28.0,-100.00,ESE,123,4.0,12.0,67,0.00,,,0.00,68.000000,,2013-02-26 16:42:00,
2013-02-26 11:52:00,38.0,28.0,-100.00,ESE,123,4.0,12.0,67,0.00,,,0.00,68.000000,,2013-02-26 16:52:00,
2013-02-26 12:01:00,38.0,28.0,-100.00,ESE,123,4.0,12.0,67,0.00,,,0.00,68.000000,,2013-02-26 17:01:00,
2013-02-26 12:11:00,38.0,28.0,-100.00,ESE,123,4.0,12.0,67,0.00,,,0.00,68.000000,,2013-02-26 17:11:00,
2013-02-26 12:32:00,37.0,27.0,-100.00,ESE,109,4.0,11.0,68,0.01,,,0.01,49.000000,,2013-02-26 17:32:00,
2013-02-26 12:42:00,37.0,27.0,-100.00,ESE,109,4.0,11.0,68,0.01,,,0.01,49.000000,,2013-02-26 17:42:00,
2013-02-26 12:52:00,37.0,27.0,-100.00,ESE,109,4.0,11.0,68,0.01,,,0.01,49.000000,,2013-02-26 17:52:00,
2013-02-26 13:02:00,37.0,27.0,-100.00,ESE,109,4.0,11.0,68,0.01,,,0.01,49.000000,,2013-02-26 18:02:00,
2013-02-26 13:12:00,37.0,27.0,-100.00,ESE,109,4.0,11.0,68,0.01,,,0.01,49.000000,,2013-02-26 18:12:00,
2013-02-26 13:32:00,36.0,32.0,-100.00,ENE,65,3.0,7.0,86,0.06,,,0.07,48.000000,,2013-02-26 18:32:00,
2013-02-26 13:42:00,36.0,32.0,-100.00,ENE,65,3.0,7.0,86,0.06,,,0.07,48.000000,,2013-02-26 18:42:00,
2013-02-26 13:53:00,36.0,32.0,-100.00,ENE,65,3.0,7.0,86,0.06,,,0.07,48.000000,,2013-02-26 18:53:00,
2013-02-26 14:02:00,36.0,32.0,-100.00,ENE,65,3.0,7.0,86,0.06,,,0.07,48.000000,,2013-02-26 19:02:00,
2013-02-26 14:11:00,36.0,32.0,-100.00,ENE,65,3.0,7.0,86,0.06,,,0.07,48.000000,,2013-02-26 19:11:00,
2013-02-26 14:42:00,37.0,34.0,-100.00,East,95,6.0,11.0,88,0.06,,,0.13,59.000000,,2013-02-26 19:42:00,
2013-02-26 14:52:00,37.0,34.0,-100.00,East,95,6.0,11.0,88,0.06,,,0.13,59.000000,,2013-02-26 19:52:00,
2013-02-26 15:01:00,37.0,34.0,-100.00,East,95,6.0,11.0,88,0.06,,,0.13,59.000000,,2013-02-26 20:01:00,
2013-02-26 15:11:00,37.0,34.0,-100.00,East,95,6.0,11.0,88,0.06,,,0.13,59.000000,,2013-02-26 20:11:00,
2013-02-26 17:42:00,39.0,37.0,-100.00,East,91,7.0,17.0,91,-99.99,,,0.22,11.000000,,2013-02-26 22:42:00,
2013-02-26 17:52:00,39.0,37.0,-100.00,East,91,7.0,17.0,91,-99.99,,,0.22,11.000000,,2013-02-26 22:52:00,
2013-02-26 18:01:00,39.0,37.0,-100.00,East,91,7.0,17.0,91,-99.99,,,0.22,11.000000,,2013-02-26 23:01:00,
2013-02-26 18:11:00,39.0,37.0,-100.00,East,91,7.0,17.0,91,-99.99,,,0.22,11.000000,,2013-02-26 23:11:00,
2013-02-26 18:32:00,40.0,38.0,-100.00,East,81,6.0,21.0,91,0.04,,,0.26,5.000000,,2013-02-26 23:32:00,
2013-02-26 18:42:00,40.0,38.0,-100.00,East,81,6.0,21.0,91,0.04,,,0.26,5.000000,,2013-02-26 23:42:00,
2013-02-26 18:52:00,40.0,38.0,-100.00,East,81,6.0,21.0,91,0.04,,,0.26,5.000000,,2013-02-26 23:52:00,
2013-02-26 19:02:00,40.0,38.0,-100.00,East,81,6.0,21.0,91,0.04,,,0.26,5.000000,,2013-02-27 00:02:00,
2013-02-26 19:11:00,40.0,38.0,-100.00,East,81,6.0,21.0,91,0.04,,,0.26,5.000000,,2013-02-27 00:11:00,
2013-02-26 19:42:00,40.0,38.0,-100.00,ENE,71,6.0,19.0,91,0.11,,,0.37,0.000000,,2013-02-27 00:42:00,
2013-02-26 19:52:00,40.0,38.0,-100.00,ENE,71,6.0,19.0,91,0.11,,,0.37,0.000000,,2013-02-27 00:52:00,
2013-02-26 20:01:00,40.0,38.0,-100.00,ENE,71,6.0,19.0,91,0.11,,,0.37,0.000000,,2013-02-27 01:01:00,
2013-02-26 20:11:00,40.0,38.0,-100.00,ENE,71,6.0,19.0,91,0.11,,,0.37,0.000000,,2013-02-27 01:11:00,
2013-02-26 20:13:00,40.0,38.0,-100.00,NNW,346,2.0,14.0,93,0.13,,,0.50,0.000000,,2013-02-27 01:13:00,
2013-02-26 20:32:00,40.0,38.0,-100.00,NNW,346,2.0,14.0,93,0.13,,,0.50,0.000000,,2013-02-27 01:32:00,
2013-02-26 20:42:00,40.0,38.0,-100.00,NNW,346,2.0,14.0,93,0.13,,,0.50,0.000000,,2013-02-27 01:42:00,
2013-02-26 20:52:00,40.0,38.0,-100.00,NNW,346,2.0,14.0,93,0.13,,,0.50,0.000000,,2013-02-27 01:52:00,
2013-02-26 21:02:00,40.0,38.0,-100.00,NNW,346,2.0,14.0,93,0.13,,,0.50,0.000000,,2013-02-27 02:02:00,
2013-02-26 21:42:00,39.0,38.0,-100.00,WNW,287,3.0,6.0,98,0.17,,,0.67,0.000000,,2013-02-27 02:42:00,
2013-02-26 21:52:00,39.0,38.0,-100.00,WNW,287,3.0,6.0,98,0.17,,,0.67,0.000000,,2013-02-27 02:52:00,
2013-02-26 22:02:00,39.0,38.0,-100.00,WNW,287,3.0,6.0,98,0.17,,,0.67,0.000000,,2013-02-27 03:02:00,
2013-02-26 22:11:00,39.0,38.0,-100.00,WNW,287,3.0,6.0,98,0.17,,,0.67,0.000000,,2013-02-27 03:11:00,
2013-02-26 22:32:00,38.0,38.0,-100.00,NW,322,3.0,8.0,99,0.09,,,0.76,0.000000,,2013-02-27 03:32:00,
2013-02-26 22:42:00,38.0,38.0,-100.00,NW,322,3.0,8.0,99,0.09,,,0.76,0.000000,,2013-02-27 03:42:00,
2013-02-26 22:52:00,38.0,38.0,-100.00,NW,322,3.0,8.0,99,0.09,,,0.76,0.000000,,2013-02-27 03:52:00,
2013-02-26 23:02:00,38.0,38.0,-100.00,NW,322,3.0,8.0,99,0.09,,,0.76,0.000000,,2013-02-27 04:02:00,
2013-02-26 23:11:00,38.0,38.0,-100.00,NW,322,3.0,8.0,99,0.09,,,0.76,0.000000,,2013-02-27 04:11:00,
2013-02-26 23:32:00,38.0,38.0,-100.00,NNW,337,4.0,8.0,99,0.03,,,0.79,0.000000,,2013-02-27 04:32:00,
2013-02-26 23:42:00,38.0,38.0,-100.00,NNW,337,4.0,8.0,99,0.03,,,0.79,0.000000,,2013-02-27 04:42:00,
2013-02-26 23:52:00,38.0,38.0,-100.00,NNW,337,4.0,8.0,99,0.03,,,0.79,0.000000,,2013-02-27 04:52:00,